星链-6312 (STARLINK-6312 )

导读

STARLINK-6312是美国太空探索技术公司(SpaceX)星链互联网星座的卫星,于2023年5月14日发射升空,是星链组网过程中发射的卫星之一,主要为全球提供低延迟、高速率的宽带互联网服务,该卫星服役至今,承担着星座网络的信号覆盖与数据传输任务,推动全球互联网覆盖范围扩展。

基本信息
目录编号:
56536
目录名称:
STARLINK-6312
国际标识:
2023-065AK
轨道中心:
EARTH
卫星名称:
星链-6312
卫星全名:
星链-6312 (STARLINK-6312 )
卫星状态:
在轨 (已飞行1217 天)
发射日期:
2023-05-14 UTC
国别 :
美国 (US)
星等 :
--
该卫星已列入 空间交会检测服务 Space Conjunction Data Service (SCDS) ,当前飞行风险评估等级: 高风险
轨道信息
数据来源 国际轨道数据 AOE轨道数据
星历时间 2026-09-12T08:54:21+0800
15小时前
查看轨道信息
2026-09-06T08:00:00+0800
6天前
查看轨道信息
半长轴 6861.207km 6861.187km
偏心率 0.0000689 0.0001085
轨道倾角 43.000° 43.002°
近地点辐角 274.226° 281.405°
升交点赤经 254.435° 288.535°
平近点角 85.852° 316.555°
近地点 482.597km 482.305km
远地点 483.543km 483.795km
周期 94.267分钟 94.267分钟
每日圈数 15.275733 15.2758
详细信息
固有亮度:
5
最大亮度:
2.5
卫星平台:
Starlink v1.5
覆盖范围:
全球
运营商:
太空探索技术公司
运营商所在国:
美国
制造商(研发单位):
太空探索技术公司
制造商所在国:
美国
使用方式:
暂无
卫星简介
星链(Starlink)计划是由太空探索技术公司(SpaceX)提出的一个巨型低轨卫星互联网星座项目,计划在2019年至2024年间在太空搭建由约1.2万颗卫星组成的“星链”网络,其中1584颗将部署在地球上空550千米处的近地轨道,并从2020年开始工作。该卫星仍在工作。
2D轨道图
3D轨道图
轨道高度分析图
轨道倾角分析图
轨道综合分析图
查看轨道综合分析图
交会数据列表
事件ID 空间交会对象 最接近时刻(TCA) 交会距离 交会风险概率(CRP) 交会风险指数(CRI) 操作
CDM_260914-222105-619105-653621
HAWK-7A (56191)
2026-09-14T
22:21:04+0000
1.227 km
极远距离
1.121967E-5 中风险 0.56
CDM_260914-205505-653606-404121
2026-09-14T
20:55:16+0000
2.465 km
极远距离
1.511898E-6 低风险 0.39
与全量物体交会距离演化趋势
与全量物体交会风险概率演化趋势